KINEIS-3D

Last updated on Mon Dec 15 2025 00:02:49 GMT+0000 (Coordinated Universal Time)

1 61221U 24172B 25348.21162339 .00003132 00000+0 50293-3 0 9997 2 61221 98.0267 75.2893 0001822 56.9391 303.1991 14.72335812 66134
UTC large
Height (km)
Speed (km/s)
/
Latitude / Longitude
Inclination (degrees)
Orbital Period (minutes)
Azimuth
Elevation
Range (km)
Doppler Factor

Next 0 passes for location: London (51.5072 / 0.1276)

Sorry there are no passes over London.